Погода в Советской Хакасии

Россия / Республика Хакасия     54˚06′46″N   91˚26′04″E
темп.,
°C
ветер,
м/с
пор.,
м/с
влажн.,
%
обл.,
%
осадки,
мм/ч
давл.,
гПа
погр.,
м
17 января, вс
вс1701:00−15˚ююв1191100 0.0 102831
04:00−17˚ююв228899 0.0 102521
07:00−18˚юв129099 0.0 102320
10:00−16˚юв228799 0.0 102129
13:00−13˚юв2381100 0.0 1016219
16:00−14˚юв1288100 0.0 101421
19:00−15˚ююв3390100 0.0 101653
22:00−12˚ю1288100 0.0 101955
18 января, пн
пн1801:00−14˚юз118683 0.0 102021
04:00−14˚ююз23830 0.0 102120
07:00−14˚ююв22830 0.0 102020
10:00−12˚ююв238879 0.0 101744
13:00−10˚ююв248490 0.0 1012184
16:00−10˚ю2285100 0.0 101036
19:00−12˚ююз238082 0.0 101023
22:00−11˚юз2383100 0.0 101239
19 января, вт
вт1901:00−14˚зсз017972 0.0 101621
04:00−16˚вюв127559 0.0 101920
07:00−19˚юв118229 0.0 102220
10:00−17˚ю228076 0.0 102420
13:00−14˚ююв127888 0.0 1022128
16:00−15˚юв1184100 0.0 102020
19:00−18˚юв1185100 0.0 102020
22:00−20˚юв119195 0.0 101820
20 января, ср
ср2001:00−18˚ююв119298 0.0 101720
04:00−17˚юв1189100 0.0 101720
07:00−15˚в1189100 0.0 101621
10:00−14˚с2290100 0.0 101868
13:00−16˚с369191 0.0 1019222
16:00−19˚ссз359274 0.0 1021139
19:00−24˚ссз339277 0.0 102428
22:00−24˚с239299 0.0 102445
21 января, чт
чт2101:00−23˚с1292100 0.0 102340
04:00−20˚вюв1199100 0.4 102147
07:00−18˚ю1296100 0.9 101990
10:00−18˚ююв2297100 0.0 101844
13:00−14˚юв2293100 0.1 1016157
16:00−13˚вюв1195100 0.0 101620
19:00−12˚в1195100 0.0 101521
22:00−10˚в1196100 0.0 101221